KAITUO 1B
1 40912U 15049P   18004.06917888  .00001390  00000-0  70840-4 0  9991
2 40912  97.4510  13.7676 0014205 217.3976 189.3810 15.18348553126766
TIANWANG 1C (TW-1C)
1 40926U 15051B   18004.50512028  .00007243  00000-0  14750-3 0  9995
2 40926  97.2057  47.7147 0011486 146.9954 322.9024 15.46485962127991
TIANWANG 1B (TW-1B)
1 40927U 15051C   18004.40197588  .00007251  00000-0  15368-3 0  9990
2 40927  97.2148  47.5327 0011145 158.9433 326.7167 15.45317908127902
TIANWANG 1A (TW-1A)
1 40928U 15051D   18004.07170434  .00003156  00000-0  87200-4 0  9990
2 40928  97.2052  41.2251 0011575 186.1792 226.1983 15.37724867127559
LAPAN A2
1 40931U 15052B   18004.12666174  .00000684  00000-0  62693-5 0  9995
2 40931   5.9955 239.9776 0013009 210.4304 149.5098 14.76561112122715
LQSAT
1 40958U 15057A   18004.38944543  .00000025  00000-0  11598-4 0  9992
2 40958  97.9599  80.9881 0019055 138.2424 222.0242 14.73010286120733
CHUBUSAT 2
1 41338U 16012B   18003.94225878 +.00000319 +00000-0 +18197-4 0  9999
2 41338 031.0034 277.1067 0014045 246.8313 113.0843 14.99899589103154
CHUBUSAT 3
1 41339U 16012C   18004.17645999  .00000316  00000-0  17869-4 0  9998
2 41339  31.0093 274.4512 0013817 256.0829 103.8271 15.00092815103170
OUFTI-1
1 41458U 16025C   18004.15017905  .00002042  00000-0  11129-3 0  9992
2 41458  98.1597  58.0923 0170779 337.8496  21.5429 15.04124196 92772
E-STAR-2
1 41459U 16025D   18004.13005585  .00001712  00000-0  94518-4 0  9999
2 41459  98.1628  57.9716 0171425 338.7135  20.7031 15.03899479 92766
AAUSAT 4
1 41460U 16025E   18004.12053923  .00002110  00000-0  11466-3 0  9992
2 41460  98.1541  58.2348 0163093 335.8144  23.5488 15.05128228 92808
NUSAT 1
1 41557U 16033B   18004.19856400  .00001191  00000-0  46437-4 0  9991
2 41557  97.4492  88.6587 0014463  23.9499 336.2410 15.27885882 89117
BEESAT 4
1 41619U 16040W   18004.21849651  .00001301  00000-0  60594-4 0  9994
2 41619  97.4380  69.4860 0013413  86.3022 273.9748 15.21632030 73159
PRATHAM
1 41783U 16059A   18004.11948378  .00000053  00000-0  19827-4 0  9997
2 41783  98.1418  68.1335 0032456 249.8126 109.9584 14.62891930 67972
ALSAT 1N
1 41789U 16059G   18004.07774321  .00000079  00000-0  24238-4 0  9993
2 41789  98.1425  68.9869 0026987 242.8409 117.0051 14.64116270 68008
NAYIF 1
1 42017U 17008BX  18003.90195405 +.00001443 +00000-0 +62727-4 0  9995
2 42017 097.4709 069.7976 0005304 227.6690 132.4098 15.23911889049041
LILACSAT-1
1 42725U 98067ME  18004.13788516  .00015874  00000-0  18062-3 0  9997
2 42725  51.6384 110.1848 0005225 336.7944  23.2813 15.62457439 34813
MAX VALIER SAT
1 42778U 17036P   18004.24973151  .00000887  00000-0  43165-4 0  9996
2 42778  97.4270  66.5109 0011173 285.3632  74.6369 15.20955520 29581
